Regional Weather Roundup
Issued by NWS

Home | Current Version | Previous Version | Graphics & Text | Print | Product List | Glossary On
Versions: 1 2 3 4 5 6 7 8 9 10 11 12 13 14 15 16 17 18 19 20 21 22 23 24 25 26 27 28 29 30 31 32 33 34 35 36 37 38 39 40 41 42 43 44 45 46 47 48 49 50
753
ASUS45 KTFX 160710
RWRMT
MONTANA REGIONAL WEATHER ROUNDUP
NATIONAL WEATHER SERVICE GREAT FALLS MT
1200 AM MST SAT DEC 16 2017

NOTE: "FAIR" INDICATES FEW OR NO CLOUDS BELOW 12000 FEET WITH NO
SIGNIFICANT WEATHER AND/OR OBSTRUCTIONS TO VISIBILITY.

MTZ001>007-043-160800-
WEST OF THE DIVIDE

CITY           SKY/WX    TMP DP  RH WIND       PRES   REMARKS
KALISPELL      CLOUDY    30  29  96 CALM      29.97S FOG
MISSOULA       FAIR      29  28  96 E3        29.96F FOG
BUTTE          LGT SNOW  26  23  88 SE3       29.89R FOG
MULLAN PASS    LGT SNOW  20  18  92 NW3       29.89R VSB 1
ANACONDA         N/A     27  27 100 CALM      29.90F
DEER LODGE       N/A     27  27 100 W5        29.92F VSB 1
EUREKA           N/A     28  25  86 MISG      30.00F
HAMILTON         N/A     27  27 100 S3        29.96F
LIBBY            N/A     27  27 100 CALM      30.01S
PLAINS           N/A     30  26  85 CALM      30.02R
RONAN            N/A     28  26  92 SE2       30.01R
$$

MTZ008-052>055-160800-
SOUTHWEST MONTANA

CITY           SKY/WX    TMP DP  RH WIND       PRES   REMARKS
BOZEMAN        CLOUDY    29  25  85 SW5       29.90R
DILLON         CLOUDY    31  21  66 SW9       29.85R WCI  23
W YELLOWSTONE  CLOUDY    25  19  80 CALM      29.89F
ENNIS          CLOUDY    32  23  69 S10       29.92S WCI  24
THREE FORKS      N/A     30  26  85 CALM      29.90R
TWIN BRIDGES     N/A     29  19  66 CALM      29.87S
$$

MTZ009-010-012-014-046-048-049-054-160800-
EAST SLOPES AND CENTRAL MONTANA

CITY           SKY/WX    TMP DP  RH WIND       PRES   REMARKS
CUT BANK       CLOUDY    29  27  92 N6        29.88R WCI  23
GREAT FALLS    CLOUDY    32  26  78 E6        29.89R WCI  26
MALMSTROM AFB  CLOUDY    31  28  88 NE6       29.89F WCI  26
HELENA         CLOUDY    28  26  92 CALM      29.87F
BOWMANS CRNR   MOCLDY    31  26  81 NE7       29.83F WCI  24
CHOTEAU          N/A     28  27  93 CALM      29.90R
CONRAD           N/A     29  29 100 CALM      29.93
FAIRFIELD      MOCLDY    28  24  84 NW3       29.88R
POWER          MOCLDY    30  25  82 N5        29.88R
RAYNESFORD     MOCLDY    33  29  86 NW6       29.87  WCI  27
ULM            CLOUDY    33  28  83 NE5       29.88S
$$

MTZ011-013-016-021-045-047-050-051-160800-
NORTH CENTRAL MONTANA

CITY           SKY/WX    TMP DP  RH WIND       PRES   REMARKS
HAVRE          CLOUDY    33  32  96 W9        29.90R WCI  25
LEWISTOWN      CLOUDY    32  29  88 N7        29.85S WCI  26
N BAR RANCH    MIX PCPN  30  28  93 N8        29.86R WCI  23
CHINOOK          N/A     34  34 100 W12       29.89R WCI  25
DENTON         FLURRIES  32  31  93 W17       29.84R WCI  21
GEYSER         MOCLDY    32  31  98 N6        29.86R WCI  26
GRASS RANGE    CLOUDY    32  29  87 NE6       29.83R WCI  27
STANFORD       MOCLDY    31  30  99 N7        29.85S WCI  24
WINIFRED       LGT RAIN  32  29  89 N8        29.86  WCI  25
$$

MTZ017>020-022>027-061-062-160800-
NORTHEAST MONTANA

CITY           SKY/WX    TMP DP  RH WIND       PRES   REMARKS
GLASGOW        FAIR      33  30  88 W12       29.80R WCI  24
GLENDIVE       MIX PCPN  37  33  85 NW14      29.75S WCI  28
JORDAN           N/A     34  31  88 W10       29.82S WCI  26
SIDNEY         CLOUDY    38  33  82 NW20      29.73R WCI  28
WOLF POINT     CLOUDY    39  31  72 W13       29.78R WCI  31
MALTA          CLOUDY    34  32  93 W13       29.86R WCI  25
PLENTYWOOD       N/A     36  28  75 NW18      29.68R WCI  25
POPLAR           N/A     37  28  70 W8        29.77R WCI  31
SCOBEY           N/A     35  24  64 W16       29.73R WCI  25
$$

MTZ028>42-056>058-160800-
SOUTHCENTRAL AND SOUTHEAST MONTANA

CITY           SKY/WX    TMP DP  RH WIND       PRES   REMARKS
BAKER          MIX PCPN  36  33  89 NW15      29.74R WCI  27
BILLINGS       LGT RAIN  42  29  59 N14       29.84R
LIVINGSTON     CLOUDY    38  27  64 NW12      29.86R WCI  30
MILES CITY     CLOUDY    36  33  89 NW9       29.81R WCI  29
BIG TIMBER     MOCLDY    39  25  56 W23G29    29.85R WCI  29
EKALAKA          N/A     36  18  48 W5        29.74R
FORSYTH          N/A     37  36  93 NW6       29.83R
LAUREL           N/A     43  27  52 N7        29.86R
ROUNDUP          N/A     35  26  70 N7        29.79R WCI  29
$$

REGIONAL REPORTS...DAKOTAS

CITY           SKY/WX    TMP DP  RH WIND       PRES   REMARKS
WILLISTON        N/A    N/A N/A N/A MISG      29.70R
MINOT          CLOUDY    40  35  83 W16       29.59R
DICKINSON      CLOUDY    36  24  62 NW9       29.66R WCI  29
BEACH          CLOUDY    36  34  93 NW16      29.75R WCI  26
CROSBY         FAIR      36  32  87 NW13G21   29.66R WCI  27
TIOGA          CLOUDY    36  36 100 W12       29.66R WCI  27
WATFORD CITY   CLOUDY    37  36  93 NW10      29.68R WCI  30
BISMARCK       LGT RAIN  38  34  85 NW7       29.64R
GRAND FORKS    CLOUDY    21  19  92 E12       29.65R WCI   9
FARGO          CLOUDY    29  26  89 E6        29.60R WCI  23
BUFFALO SD       N/A     36  21  54 NW14      29.64R WCI  27
RAPID CITY     FAIR      38  15  39 N12       29.70R WCI  30
$$

REGIONAL REPORTS...WYOMING/IDAHO/WASHINGTON

CITY           SKY/WX    TMP DP  RH WIND       PRES   REMARKS
GILLETTE       FAIR      30  20  66 VRB3      29.76R
SHERIDAN       FAIR      41  20  43 NW14      29.80R
BUFFALO WY     MOCLDY    41  18  39 N8        29.79R
CODY           FAIR      37  15  40 SW3       29.82R
YELLOWSTONE LA   N/A     18  16  92 CALM      29.90F
IDAHO FALLS    CLOUDY    23  22  96 N5        29.95F
SALMON         MOCLDY    23  21  92 CALM      30.01S
BOISE          CLOUDY    27  25  92 NW12      30.11S FOG     WCI  17
SPOKANE        LGT SNOW  25  25 100 CALM      30.09S FOG
$$

REGIONAL REPORTS...ALBERTA

CITY           SKY/WX    TMP DP  RH WIND       PRES   REMARKS
CALGARY        CLOUDY    32  25  74 S2        29.85R
LETHBRIDGE     CLOUDY    32  30  93 SW3       29.89S
MEDICINE HAT   CLOUDY    30  28  93 W10       29.87S WCI  21
$$

REGIONAL REPORTS...SASKATCHEWAN

CITY           SKY/WX    TMP DP  RH WIND       PRES   REMARKS
SWIFT CURRENT  CLEAR     25  19  80 W14       29.76R WCI  13
REGINA         MOCLDY    34  30  86 NW14G20   29.65R WCI  24
SASKATOON      MOCLDY    34  28  80 NW15G21   29.67S WCI  24
$$




USA.gov is the U.S. government's official web portal to all federal, state and local government web resources and services.